TimeCDT,TemperatureF,Dew PointF,Humidity,Sea Level PressureIn,VisibilityMPH,Wind Direction,Wind SpeedMPH,Gust SpeedMPH,PrecipitationIn,Events,Conditions,WindDirDegrees,DateUTC
12:15 AM,45.5,32.0,59,30.21,10.0,SE,12.7,17.3,N/A,,Overcast,130,2012-10-29 05:15:00
12:35 AM,45.1,32.0,60,30.21,10.0,SE,16.1,20.7,N/A,,Overcast,130,2012-10-29 05:35:00
12:55 AM,45.1,32.0,60,30.21,10.0,SE,13.8,-,N/A,,Overcast,140,2012-10-29 05:55:00
1:15 AM,45.0,31.6,60,30.21,10.0,SE,15.0,-,N/A,,Overcast,140,2012-10-29 06:15:00
1:35 AM,44.8,31.6,60,30.20,10.0,SE,13.8,-,N/A,,Overcast,140,2012-10-29 06:35:00
1:55 AM,44.8,31.6,60,30.20,10.0,SE,15.0,-,N/A,,Overcast,140,2012-10-29 06:55:00
2:15 AM,44.6,31.8,61,30.20,10.0,SE,15.0,-,N/A,,Overcast,140,2012-10-29 07:15:00
2:35 AM,44.2,31.8,62,30.19,10.0,SE,13.8,24.2,N/A,,Overcast,130,2012-10-29 07:35:00
2:55 AM,44.1,31.8,62,30.20,10.0,SE,12.7,21.9,N/A,,Overcast,130,2012-10-29 07:55:00
3:15 AM,44.1,31.8,62,30.20,10.0,SE,12.7,-,N/A,,Overcast,140,2012-10-29 08:15:00
3:35 AM,43.9,31.8,63,30.19,10.0,SE,16.1,-,N/A,,Overcast,130,2012-10-29 08:35:00
3:55 AM,43.7,31.8,63,30.19,10.0,SE,15.0,-,N/A,,Overcast,130,2012-10-29 08:55:00
4:15 AM,43.7,31.6,63,30.18,10.0,ESE,16.1,21.9,N/A,,Overcast,120,2012-10-29 09:15:00
4:35 AM,43.7,31.8,63,30.17,10.0,SE,17.3,-,N/A,,Overcast,130,2012-10-29 09:35:00
4:55 AM,43.5,31.8,63,30.16,10.0,SE,15.0,-,N/A,,Overcast,130,2012-10-29 09:55:00
5:15 AM,43.3,31.6,63,30.16,10.0,SE,15.0,24.2,N/A,,Overcast,130,2012-10-29 10:15:00
5:55 AM,43.7,31.3,62,30.16,10.0,SE,13.8,24.2,N/A,,Overcast,140,2012-10-29 10:55:00
6:15 AM,43.3,31.3,62,30.17,10.0,SE,13.8,21.9,N/A,,Overcast,140,2012-10-29 11:15:00
6:55 AM,43.0,31.1,63,30.16,10.0,SE,15.0,21.9,N/A,,Mostly Cloudy,140,2012-10-29 11:55:00
7:15 AM,43.0,31.1,63,30.17,10.0,SE,13.8,19.6,N/A,,Overcast,140,2012-10-29 12:15:00
7:35 AM,43.0,31.6,64,30.17,10.0,SE,10.4,-,N/A,,Overcast,140,2012-10-29 12:35:00
7:55 AM,42.8,31.6,65,30.16,10.0,SE,12.7,17.3,N/A,,Scattered Clouds,140,2012-10-29 12:55:00
8:15 AM,42.6,31.3,64,30.17,10.0,SE,11.5,17.3,N/A,,Clear,140,2012-10-29 13:15:00
8:35 AM,42.3,31.5,66,30.17,10.0,SE,12.7,18.4,N/A,,Clear,140,2012-10-29 13:35:00
8:55 AM,43.0,31.5,64,30.18,10.0,SE,11.5,16.1,N/A,,Clear,140,2012-10-29 13:55:00
9:35 AM,44.6,31.6,60,30.17,10.0,SSE,17.3,23.0,N/A,,Clear,150,2012-10-29 14:35:00
9:55 AM,45.7,31.6,58,30.18,10.0,SE,17.3,23.0,N/A,,Clear,140,2012-10-29 14:55:00
10:15 AM,46.8,31.8,56,30.18,10.0,SSE,16.1,24.2,N/A,,Clear,160,2012-10-29 15:15:00
10:35 AM,48.4,32.0,53,30.18,10.0,SSE,17.3,21.9,N/A,,Clear,150,2012-10-29 15:35:00
10:55 AM,48.6,32.0,53,30.18,10.0,SSE,16.1,24.2,N/A,,Clear,150,2012-10-29 15:55:00
11:15 AM,49.5,32.0,51,30.17,10.0,SSE,18.4,-,N/A,,Clear,160,2012-10-29 16:15:00
11:35 AM,51.3,32.7,49,30.16,10.0,SSE,17.3,25.3,N/A,,Clear,160,2012-10-29 16:35:00
11:55 AM,51.8,32.0,47,30.16,10.0,SSE,18.4,25.3,N/A,,Clear,150,2012-10-29 16:55:00
12:15 PM,52.9,32.2,45,30.16,10.0,SSE,15.0,19.6,N/A,,Clear,160,2012-10-29 17:15:00
12:55 PM,54.5,32.4,43,30.14,10.0,South,10.4,19.6,N/A,,Clear,170,2012-10-29 17:55:00
1:15 PM,55.0,32.4,42,30.14,10.0,SSE,15.0,21.9,N/A,,Clear,160,2012-10-29 18:15:00
1:35 PM,56.1,32.4,41,30.13,10.0,SE,12.7,19.6,N/A,,Clear,140,2012-10-29 18:35:00
1:55 PM,56.7,32.5,40,30.12,10.0,SSE,15.0,-,N/A,,Clear,150,2012-10-29 18:55:00
2:15 PM,57.6,32.9,39,30.12,10.0,SSE,11.5,-,N/A,,Clear,150,2012-10-29 19:15:00
2:35 PM,58.1,32.7,38,30.11,10.0,SE,13.8,18.4,N/A,,Clear,140,2012-10-29 19:35:00
3:35 PM,58.8,32.7,37,30.10,10.0,SSE,12.7,19.6,N/A,,Clear,150,2012-10-29 20:35:00
3:55 PM,59.0,32.2,36,30.09,10.0,SSE,12.7,17.3,N/A,,Clear,160,2012-10-29 20:55:00
4:15 PM,59.0,32.7,37,30.08,10.0,SE,13.8,18.4,N/A,,Clear,140,2012-10-29 21:15:00
4:35 PM,59.2,33.1,37,30.09,10.0,SSE,10.4,17.3,N/A,,Clear,150,2012-10-29 21:35:00
4:55 PM,57.9,32.9,39,30.08,10.0,SE,11.5,-,N/A,,Clear,140,2012-10-29 21:55:00
5:15 PM,58.3,33.3,39,30.08,10.0,SE,9.2,-,N/A,,Clear,130,2012-10-29 22:15:00
5:35 PM,57.6,33.4,40,30.08,10.0,SE,8.1,-,N/A,,Clear,140,2012-10-29 22:35:00
5:55 PM,55.6,34.0,44,30.08,10.0,ESE,8.1,-,N/A,,Clear,120,2012-10-29 22:55:00
6:15 PM,54.1,34.3,47,30.08,10.0,SE,6.9,-,N/A,,Clear,130,2012-10-29 23:15:00
6:35 PM,53.1,34.2,49,30.08,10.0,ESE,6.9,-,N/A,,Clear,110,2012-10-29 23:35:00
6:55 PM,52.7,34.0,49,30.09,10.0,ESE,8.1,-,N/A,,Clear,110,2012-10-29 23:55:00
7:15 PM,52.3,33.8,49,30.10,10.0,ESE,9.2,-,N/A,,Clear,110,2012-10-30 00:15:00
7:35 PM,50.9,34.0,52,30.10,10.0,East,5.8,-,N/A,,Clear,100,2012-10-30 00:35:00
7:55 PM,50.7,34.0,53,30.10,10.0,East,9.2,-,N/A,,Clear,100,2012-10-30 00:55:00
10:35 PM,45.3,32.4,61,30.11,10.0,ESE,8.1,-,N/A,,Clear,110,2012-10-30 03:35:00
10:55 PM,45.0,32.5,62,30.11,10.0,ESE,10.4,-,N/A,,Clear,110,2012-10-30 03:55:00
11:15 PM,44.6,32.4,62,30.11,10.0,ESE,11.5,-,N/A,,Clear,110,2012-10-30 04:15:00
11:35 PM,44.8,32.2,61,30.10,10.0,ESE,11.5,-,N/A,,Clear,120,2012-10-30 04:35:00
11:55 PM,44.1,32.2,63,30.10,10.0,ESE,10.4,-,N/A,,Clear,120,2012-10-30 04:55:00